Location: Pf�ffikon
(47.2015°N, 8.7809°E)
Time: 05:00:54
(UTC+00:00)

NOSS 2-1 (E) - Pass Details

Date: 07 June 2020
Orbit: 446 x 1757 km, 63.3° (Epoch: 25 June)

Event Time Altitude Azimuth Distance (km) Brightness Sun altitude
Exits shadow 02:05:20 15° 243° (WSW) 1,301 4.7 -11.1°
Maximum altitude 02:07:56 48° 316° (NW) 620 3.6 -10.9°
Drops below altitude 10° 02:11:35 10° 32° (NNE) 1,754 7.5 -10.5°
Sets 02:14:02 0° 38° (NE) 2,780 9.3 -10.2°
